Home > Weather > Palma > Past weeks

Flag for Spain Past Weather in Palma, Majorca, Spain — Yesterday and Last 2 Weeks

Now
79 °F

Sunny.


Feels Like: 80 °F
Forecast: 74 / 93 °F
Wind: 2 mph from North

Location: Palma De Mallorca / Son San Juan

Current Time: Jul 30, 2016 at 9:30:21 AM

Latest Report: Jul 30, 2016 at 9:00 AM


Visibility: 10 mi

Pressure: 30.01 "Hg

Humidity: 54%

Dew Point: 61 °F

Location of PalmaLocation

Past Weather in Palma — Graph

°F

Palma Temperature Yesterday

Maximum temperature yesterday: 90 °F (at 2:30 PM)
Minimum temperature yesterday: 68 °F (at 6:00 AM)
Average temperature yesterday: 80 °F

High & Low Weather Summary for the Past Weeks

 TemperatureHumidityPressure
High100 °F (Jul 21, 3:30 PM)94% (Jul 17, 6:00 AM)30.21 "Hg (Jul 17, 6:00 AM)
Low59 °F (Jul 16, 6:00 AM)17% (Jul 21, 3:30 PM)29.80 "Hg (Jul 22, 5:30 AM)
Average78 °F63%30.06 "Hg
* Reported Jul 15 8:00 AM — Jul 30 8:30 AM, Palma, Weather by CustomWeather, © 2016

Note: Actual official high and low records may vary slightly from our data, if they occured in-between our weather recording intervals... More about our weather records

Advertising

Palma Weather History for the Previous 24 Hours

Scroll right to see more
 ConditionsComfort  
Time TempWeatherWind HumidityBarometerVisibility
8:30 AM
Sat, Jul 30
75 °FSunny.No wind65%30.01 "Hg10 mi
8:00 AM72 °FSunny.No wind69%30.01 "Hg10 mi
7:30 AM66 °FClear.2 mph83%30.01 "Hg10 mi
7:00 AM66 °FClear.No wind83%30.01 "Hg10 mi
6:30 AM66 °FClear.1 mph88%30.01 "Hg10 mi
6:00 AM66 °FClear.1 mph88%29.98 "Hg10 mi
5:30 AM66 °FClear.2 mph88%29.98 "Hg10 mi
5:00 AM66 °FClear.1 mph88%30.01 "Hg10 mi
4:30 AM68 °FClear.No wind83%30.01 "Hg10 mi
4:00 AM68 °FClear.2 mph83%30.01 "Hg10 mi
3:30 AM68 °FClear.2 mph83%30.01 "Hg10 mi
3:00 AM68 °FClear.No wind83%30.01 "Hg10 mi
2:30 AM72 °FClear.No wind78%30.01 "Hg10 mi
2:00 AM72 °FClear.1 mph78%30.04 "Hg10 mi
1:30 AM72 °FClear.3 mph78%30.04 "Hg10 mi
1:00 AM73 °FClear.1 mph74%30.04 "Hg10 mi
12:30 AM75 °FClear.No wind69%30.04 "Hg10 mi
12:00 AM79 °FClear.1 mph65%30.04 "Hg10 mi
11:30 PM
Fri, Jul 29
79 °FClear.1 mph65%30.04 "Hg10 mi
11:00 PM81 °FClear.2 mph58%30.04 "Hg10 mi
10:30 PM81 °FClear.1 mph62%30.01 "Hg10 mi
10:00 PM81 °FSunny.2 mph58%30.01 "Hg10 mi
9:30 PM82 °FSunny.3 mph51%29.98 "Hg10 mi
9:00 PM82 °FPassing clouds.3 mph55%29.98 "HgN/A
8:30 PM82 °FPassing clouds.3 mph55%29.98 "HgN/A
8:00 PM84 °FSunny.10 mph51%29.98 "Hg10 mi
7:30 PM84 °FSunny.10 mph55%29.98 "Hg10 mi
7:00 PM86 °FSunny.14 mph52%29.98 "Hg10 mi
6:30 PM86 °FSunny.13 mph49%29.98 "Hg10 mi
6:00 PM88 °FSunny.14 mph46%29.98 "Hg10 mi
5:30 PM88 °FPassing clouds.14 mph40%30.01 "HgN/A
5:00 PM90 °FPassing clouds.15 mph41%30.01 "HgN/A
4:30 PM90 °FSunny.14 mph43%30.01 "Hg10 mi
4:00 PM90 °FSunny.15 mph43%30.01 "Hg10 mi
3:30 PM90 °FSunny.15 mph41%30.01 "Hg10 mi
3:00 PM90 °FSunny.16 mph46%30.01 "Hg10 mi
2:30 PM90 °FSunny.14 mph46%30.04 "Hg10 mi
2:00 PM88 °FSunny.14 mph52%30.04 "Hg10 mi
1:30 PM88 °FSunny.15 mph52%30.04 "Hg10 mi
1:00 PM88 °FSunny.14 mph49%30.04 "Hg10 mi
12:30 PM88 °FPassing clouds.12 mph46%30.04 "HgN/A
12:00 PM88 °FSunny.9 mph46%30.04 "Hg10 mi
11:30 AM88 °FPassing clouds.7 mph46%30.04 "HgN/A
11:00 AM86 °FSunny.1 mph49%30.04 "Hg10 mi
10:30 AM86 °FSunny.No wind49%30.04 "Hg10 mi
10:00 AM86 °FSunny.2 mph49%30.04 "Hg10 mi
9:30 AM82 °FSunny.2 mph55%30.04 "Hg10 mi
9:00 AM77 °FSunny.2 mph74%30.04 "Hg10 mi
Weather by CustomWeather, © 2016

See weather overviewHow to use our weather pages